ICE205 EKCH-BIKF

Flight info

Callsign ICE205
Flight time N/A
Altitude 36000
Route GOLGA DCT AMSEV DCT TUKMU DCT ZOL DCT GUNPA/M076F360 DCT 63N010W DCT ING DCT NASBU DCT KFV
Aircraft A21N/M-SDE2E3FGHIRWXY/LB1

Departure

Time 2026-04-30 18:11
Airport Copenhagen Kastrup Airport (EKCH)

Arrival

Time N/A
Airport Keflavik International Airport (BIKF)
Time Latitude Longitude Altitude Speed Heading
2026-04-30 17:39 55.62875 12.64000 15 ft 0 kts 12°
2026-04-30 17:51 55.62858 12.63999 15 ft 2 kts 342°
2026-04-30 17:52 55.62831 12.64058 16 ft 2 kts 271°
2026-04-30 17:53 55.62841 12.64112 17 ft 0 kts 249°
2026-04-30 18:00 55.62835 12.64089 17 ft 6 kts 248°
2026-04-30 18:01 55.62745 12.63930 15 ft 10 kts 214°
2026-04-30 18:02 55.62590 12.63775 15 ft 0 kts 192°
2026-04-30 18:04 55.62465 12.63826 15 ft 19 kts 148°
2026-04-30 18:05 55.62092 12.64447 15 ft 19 kts 169°
2026-04-30 18:06 55.61590 12.64473 15 ft 18 kts 212°
2026-04-30 18:07 55.61168 12.63991 15 ft 19 kts 214°
2026-04-30 18:08 55.60936 12.63725 17 ft 4 kts 214°
2026-04-30 18:09 55.60729 12.63706 15 ft 0 kts 123°
2026-04-30 18:10 55.60724 12.63719 15 ft 4 kts 123°
2026-04-30 18:11 55.60867 12.64158 15 ft 65 kts 41°
2026-04-30 18:11 55.63004 12.67553 1245 ft 159 kts 38°
2026-04-30 18:12 55.65739 12.71019 2609 ft 184 kts 359°
2026-04-30 18:13 55.68045 12.68470 3428 ft 221 kts 319°
2026-04-30 18:13 55.71351 12.63075 4861 ft 258 kts 322°
2026-04-30 18:14 55.74561 12.58173 6625 ft 267 kts 323°
2026-04-30 18:15 55.78880 12.51731 8812 ft 277 kts 324°
2026-04-30 18:15 55.83427 12.44984 10617 ft 296 kts 324°
2026-04-30 18:16 55.86723 12.40088 11481 ft 318 kts 324°
2026-04-30 18:16 55.90142 12.34978 12767 ft 323 kts 323°
2026-04-30 18:17 55.91866 12.32397 13372 ft 326 kts 323°
2026-04-30 18:17 55.93601 12.29798 13959 ft 329 kts 324°
2026-04-30 18:17 55.97134 12.24509 15165 ft 333 kts 323°